SCP
-0 -0 -0 -0 0 0 -0 -0 0 0 0 0 0 -0 0 0 0 0 0 0 0 0 0 0 0 0 0 0 0 0 0 0 0 0 0 0 0 0 -0 -0 -0 0 0
-0 -0 -0 -0 -0 0 0 -0 -0 0 0 -0 0 0 0 0 0 -0 -0 -0 0 0 0 0 0 0 0 0 0 0 0 -0 0 0 0 0 0 0 -0 -0 -0 0 0
-0 -0 -0 -0 -0 -0 -0 -0 0 -0 -0 -0 0 0 -0 -0 0 0 -0 -0 -0 0 0 0 0 0 0 0 0 -0 -0 -0 0 0 0 0 0 0 -0 -0 0 -0 -0
-0 -0 -0 -0 0 0 -0 -0 -0 -0 0 0 -0 -0 -0 -0 0 0 -0 -0 -0 -0 -0 0 0 0 0 0 0 -0 -0 0 0 0 0 0 0 0 0 -0 0 0 -0
-0 -0 -0 -0 -0 -0 -0 -0 -0 -0 -0 0 -0 -0 -0 0 0 -0 -0 -0 -0 -0 -0 0 -0 0 0 0 0 0 -0 -0 -0 0 0 -0 -0 -0 0 0 0 -0 -0
-0 -0 -0 -0 -0 -0 -0 0 -0 -0 0 0 0 -0 0 0 0 0 -0 -0 -0 -0 -0 -0 0 0 0 0 0 -0 -0 0 0 0 -0 0 0 0 0 0 0 -0 0
-0 -0 -0 -0 -0 -0 -0 0 -0 -0 0 0 0 0 0 0 0 0 0 0 0 0 0 0 0 0 0 0 0 -0 0 0 0 0 0 0 0 0 0 0 0 -0 0
-0 -0 -0 -0 -0 -0 -0 0 -0 0 0 0 0 0 0 0 0 0 0 0 0 0 0 0 0 0 0 0 0 0 0 0 0 -0 0 0 0 -0 0 0 0 0 -0
-0 -0 -0 -0 -0 -0 -0 -0 -0 0 0 0 0 0 0 0 0 0 0 0 0 0 0 0 0 0 0 0 0 0 0 0 0 0 0 0 0 -0 -0 -0 -0 -0 -0
-0 -0 -0 -0 -0 -0 0 0 0 0 0 0 0 0 0 0 0 0 0 0 0 0 0 0 0 0 -0 -0 -0 0 0 -0 0 0 0 0 -0 0 0 0 0 0 0
-0 -0 -0 -0 -0 -0 -0 0 0 0 0 0 0 0 0 -0 0 0 0 0 0 0 0 0 0 -0 -0 -0 -0 -0 0 0 0 0 0 -0 0 0 0 0 0 0 0
-0 -0 -0 -0 -0 -0 0 0 0 0 0 0 0 0 0 0 0 0 0 0 0 0 0 -0 0 0 0 0 0 0 0 0 -0 0 0 0 0 0 0 0 0 0 0
-0 -0 -0 0 -0 0 0 -0 0 0 0 0 0 0 0 0 0 0 0 0 0 0 0 0 0 0 -0 0 0 0 0 0 0 0 0 0 0 0 0 0 0 0 0
-0 -0 0 0 -0 -0 0 0 0 0 0 0 0 0 0 0 0 0 0 0 0 0 0 0 0 0 0 0 -0 0 0 0 0 0 0 0 0 0 0 0 0 0 0
-0 0 0 0 0 -0 0 -0 0 0 0 0 1 0 0 0 0 0 0 0 0 0 0 0 0 -0 -0 0 0 -0 0 -0 -0 -0 -0 -0 0 0 0 -0 -0 0 0
-0 -0 -0 -0 0 0 0 0 0 0 0 0 0 0 0 0 1 0 0 0 0 0 0 0 0 -0 0 0 0 0 0 0 -0 0 -0 0 0 -0 -0 0 0 0 0
-0 -0 0 0 -0 0 0 0 0 0 0 0 0 -0 0 0 1 0 0 0 0 0 0 0 0 -0 -0 0 0 0 0 0 0 0 0 0 0 -0 -0 -0 -0 0 0
-0 -1 -0 -0 -0 0 0 0 -0 0 0 1 0 0 0 0 0 0 0 0 0 0 0 0 0 -0 -0 -0 0 0 0 -0 0 0 0 0 0 0 0 0 0 0 0
-0 -1 -0 -0 -0 -0 0 0 0 1 1 0 0 0 0 0 0 0 0 0 0 0 0 0 0 0 -0 -0 0 0 0 0 0 0 -0 -0 -0 -0 0 0 0 0 0
-0 -0 -0 0 0 -0 0 0 0 1 1 0 1 1 0 0 0 0 0 0 0 0 0 0 0 -0 -0 0 -0 0 0 0 0 0 0 0 -0 -0 0 0 0 0 -0
0 -0 -0 -0 1 1 1 0 0 0 0 0 0 1 0 1 1 0 0 0 0 0 0 0 0 0 -0 -0 -0 0 0 0 0 0 0 0 0 0 -0 0 0 0 0
0 0 0 0 0 1 1 1 1 1 1 1 1 1 1 1 0 0 0 0 0 0 0 0 0 0 0 -0 0 0 0 0 0 0 0 0 0 0 0 0 0 0 0
0 0 1 1 1 1 1 1 1 2 1 1 1 1 1 1 1 0 0 0 0 0 0 0 0 0 -0 0 0 0 0 0 0 0 0 0 0 0 0 0 0 0 0
0 1 1 2 1 1 1 1 1 1 1 1 1 1 1 1 1 1 0 0 0 0 0 0 0 0 0 0 0 0 0 0 0 0 0 0 0 0 0 0 0 0 0
1 1 2 2 2 1 1 1 1 -0 0 2 2 1 1 2 1 0 1 1 1 1 0 0 0 0 0 0 0 0 0 0 0 0 0 0 0 0 0 0 0 0 0
1 1 1 2 2 1 1 1 1 1 1 3 2 1 1 2 1 1 1 1 1 1 0 0 1 0 0 0 0 0 0 0 0 0 0 0 0 0 0 0 0 0 0
Wind_Speed_500mb
24 30 24 21 20 18 16 14 15 17 18 19 18 18 20 21 21 23 23 22 20 17 13 8 4 2 1 2 3 5 7 9 10 7 7 10 15 15 17 19 14 18 19
25 30 27 24 22 20 18 18 21 20 19 18 17 18 22 24 25 24 25 25 24 21 16 12 7 4 4 4 5 6 8 10 13 5 6 10 16 12 10 10 10 17 18
31 30 29 26 23 20 19 20 19 18 17 16 18 21 20 23 24 26 29 30 29 26 22 18 14 11 9 8 7 9 11 17 10 7 6 10 11 17 9 12 13 17 17
30 31 30 27 23 19 20 20 19 17 15 15 16 17 19 24 26 29 31 31 30 28 26 25 25 21 16 12 11 15 18 18 13 13 13 6 11 15 14 14 17 15 15
32 27 29 25 21 21 18 18 18 16 14 13 15 17 21 25 28 29 30 31 29 27 25 25 19 20 19 22 22 25 25 21 15 8 19 25 22 16 16 16 18 17 16
29 27 27 25 23 24 19 18 18 14 13 13 15 16 21 25 26 28 30 31 29 26 23 20 21 24 25 27 28 30 23 16 14 15 18 15 22 22 18 10 7 9 12
31 27 27 24 24 22 19 18 16 13 12 12 14 17 21 23 25 27 27 28 27 25 24 20 20 21 20 23 26 22 17 13 29 24 13 9 17 18 10 6 7 10 12
28 31 27 25 23 20 18 19 16 13 11 13 16 18 19 21 24 27 28 27 26 23 21 19 19 19 17 17 16 14 6 11 17 24 8 11 15 9 6 9 11 13 15
33 27 25 27 25 21 19 18 15 13 12 13 15 16 17 19 23 25 27 22 21 19 17 18 19 18 18 16 11 8 8 26 18 16 10 15 12 26 31 29 28 22 21
32 28 26 20 25 21 19 18 15 13 11 11 13 13 14 24 26 23 26 20 18 16 13 12 14 20 29 25 17 16 31 19 22 15 17 23 12 14 13 12 14 17 18
30 29 30 21 12 13 16 16 14 12 9 10 11 16 19 22 20 16 31 28 22 19 18 14 16 16 18 24 24 8 6 19 10 9 21 18 14 15 13 12 9 8 13
31 28 31 24 20 26 7 12 14 11 8 5 8 13 13 8 6 14 21 23 25 22 24 19 11 15 18 9 9 11 2 2 13 14 20 12 7 5 8 9 11 8 10
28 27 31 26 26 22 20 6 2 3 0 2 5 2 1 7 11 14 16 14 21 18 15 12 12 14 9 16 6 11 6 9 9 7 5 5 5 12 18 19 13 8 9
29 27 29 28 28 23 20 10 14 7 15 13 11 6 11 3 5 3 13 16 19 9 8 8 13 6 11 16 11 6 7 9 4 9 10 2 6 10 10 13 13 12 13
29 30 24 32 36 29 17 19 17 17 17 6 16 13 6 8 15 9 14 6 4 6 8 9 4 4 14 7 9 9 18 14 4 9 17 6 9 9 9 8 8 10 13
29 32 26 22 35 35 26 16 25 19 11 17 10 19 16 8 17 8 11 5 8 8 10 10 4 13 3 7 5 10 13 8 10 7 11 8 8 10 11 14 16 17 19
31 31 33 27 22 33 32 25 14 13 12 8 15 29 23 16 14 12 4 16 6 14 18 14 9 11 8 8 2 5 14 17 5 4 11 9 6 8 10 13 16 17 20
31 38 31 28 26 22 28 21 18 15 15 17 21 27 19 20 14 11 6 18 9 14 13 15 16 20 15 11 7 7 7 3 8 3 8 12 7 10 10 11 13 15 17
36 37 31 33 32 29 25 23 23 23 26 20 23 22 20 17 12 16 10 20 16 11 19 14 17 13 16 14 19 20 14 10 10 10 12 9 10 8 2 8 6 10 12
35 33 33 35 35 39 27 27 20 22 19 20 20 25 25 16 17 23 15 16 16 9 18 17 21 18 23 19 22 27 18 20 15 21 23 16 21 9 19 14 4 3 6
38 43 38 40 45 43 38 28 23 26 14 16 13 21 22 21 27 29 26 16 11 12 15 19 25 24 18 21 25 17 26 27 24 30 32 23 29 23 28 27 17 17 12
40 42 51 46 46 51 40 29 22 18 11 9 11 16 21 25 23 24 24 13 17 18 22 28 27 24 27 24 27 24 29 36 41 41 40 39 33 35 33 31 29 28 22
39 48 47 50 47 47 37 31 30 23 19 14 15 19 17 17 22 20 19 15 20 26 23 27 28 32 30 24 33 32 19 23 29 49 48 45 41 45 47 41 35 35 34
40 42 45 47 48 43 47 31 25 20 9 10 7 5 11 23 27 30 17 14 23 25 20 24 24 30 34 33 26 37 39 45 20 6 47 47 43 42 53 51 48 47 46
37 40 44 44 46 40 46 35 25 22 15 16 18 19 16 18 16 24 21 24 24 27 24 28 31 33 34 36 38 28 38 31 32 39 39 26 49 46 55 53 54 49 47
37 38 44 44 43 39 44 48 39 27 21 16 15 12 7 24 21 26 28 27 26 26 28 29 40 44 43 45 39 44 42 31 37 38 41 46 42 41 49 51 63 56 50
Wind_Direction_500mb
126 136 135 131 123 114 112 113 108 103 98 87 77 63 54 48 40 35 32 31 34 31 27 33 40 35 46 82 102 117 122 118 101 86 70 64 57 60 80 80 66 62 68
147 137 136 134 124 122 116 111 100 98 92 85 70 54 44 41 39 36 37 37 40 44 45 50 63 88 115 121 112 110 116 103 87 76 66 102 86 68 83 98 35 61 68
139 135 135 132 125 120 120 109 102 96 89 75 56 46 41 43 45 45 47 47 45 48 56 65 72 79 90 105 115 110 101 95 107 70 73 111 85 96 80 98 79 73 74
132 137 133 129 127 123 112 109 103 103 90 71 59 50 46 50 55 56 54 52 49 50 56 63 64 74 78 88 97 98 99 102 83 35 354 325 99 68 78 88 86 86 84
132 135 130 130 123 116 116 116 115 108 94 72 56 51 55 61 60 58 55 55 56 60 67 73 81 84 79 86 101 108 116 114 100 114 41 64 81 84 78 89 92 92 83
135 139 137 137 129 129 128 123 121 113 90 68 58 59 66 65 61 58 53 51 52 58 65 73 78 82 83 90 108 118 112 81 18 29 89 86 64 61 64 73 83 94 106
138 141 139 136 132 133 130 127 122 110 92 78 72 70 68 65 62 58 56 55 56 61 70 70 76 85 89 97 109 118 105 51 29 157 148 8 16 345 356 80 127 135 119
134 143 143 137 137 136 137 138 136 120 100 84 80 80 73 67 59 56 52 50 52 59 70 73 71 71 76 85 95 123 154 28 64 116 92 48 28 340 60 97 125 132 129
139 148 152 148 148 147 147 148 137 124 109 99 90 83 74 64 53 50 53 46 52 54 65 75 72 61 48 36 27 88 108 50 98 118 54 55 77 92 93 94 95 106 115
146 149 153 156 153 156 155 151 144 136 123 107 89 82 82 49 30 40 33 36 45 48 55 65 56 54 58 60 77 104 75 78 74 117 93 90 100 101 101 106 104 110 120
148 154 163 156 152 152 149 156 155 153 134 110 95 77 69 49 1 8 25 22 32 43 46 46 62 63 70 87 66 103 91 74 46 37 91 93 113 106 98 98 109 163 181
156 159 161 155 167 175 205 164 169 166 150 165 125 87 61 76 212 312 1 12 34 40 51 81 70 14 355 339 12 152 90 288 24 88 105 104 84 65 75 74 102 136 133
158 158 156 159 162 165 201 209 22 10 80 65 248 149 318 260 328 322 328 14 5 4 50 60 19 12 357 60 12 350 90 33 124 90 142 136 95 101 107 111 116 116 121
161 166 168 169 178 161 215 151 192 236 203 223 285 229 226 76 294 76 354 356 350 347 52 70 324 229 71 57 77 90 43 82 155 12 26 62 79 92 88 99 104 116 127
164 172 177 185 178 175 184 168 193 208 227 206 219 276 208 237 259 279 251 217 217 352 285 279 304 112 95 77 113 89 84 91 136 28 11 34 76 62 68 84 92 104 112
168 177 181 194 191 180 177 193 204 195 244 210 254 250 266 193 272 225 325 353 273 248 288 256 62 162 65 273 156 124 121 126 17 24 347 22 91 97 101 108 113 116 118
175 185 189 186 228 194 176 194 194 231 211 267 224 241 274 244 268 272 242 268 207 245 238 257 259 191 147 160 146 137 215 196 207 345 353 7 81 105 108 113 119 121 121
182 204 195 182 221 209 187 209 171 221 200 229 235 248 285 288 263 261 257 265 217 255 265 225 251 199 170 188 213 223 182 277 188 177 314 346 16 77 107 116 129 137 137
185 204 210 189 214 232 202 196 176 222 232 215 253 269 251 269 264 271 247 267 216 229 247 237 256 222 204 210 222 203 216 225 297 171 204 284 302 334 134 70 98 127 144
201 196 214 202 196 232 235 196 215 236 259 236 220 257 263 257 254 265 258 282 242 222 257 245 242 222 250 229 234 219 221 222 241 217 246 222 247 266 257 277 277 108 102
202 205 202 208 202 217 225 213 201 235 264 242 270 255 259 260 246 271 284 288 283 249 251 254 242 254 237 223 244 249 221 226 237 226 245 244 221 235 244 259 258 250 240
205 208 205 208 213 217 217 197 201 226 269 229 255 242 249 256 270 268 276 248 266 277 250 250 241 225 247 233 243 241 248 227 234 233 230 236 229 234 236 256 257 258 261
211 209 206 203 213 221 210 202 204 203 209 239 249 284 286 292 298 299 275 252 237 250 256 270 273 254 232 240 236 238 260 239 262 232 230 233 235 231 235 237 243 244 253
212 212 202 205 213 219 188 204 208 192 209 186 158 187 286 291 310 310 289 264 260 261 254 251 265 269 229 236 245 244 254 268 295 312 222 237 235 237 230 236 239 243 243
201 204 200 207 209 213 192 188 217 185 224 217 220 240 266 277 313 330 325 267 272 269 266 241 247 254 243 240 237 256 259 267 266 263 265 246 238 231 233 242 243 250 246
192 196 201 204 201 199 193 189 197 206 192 194 230 227 247 286 288 303 307 314 308 278 270 259 245 246 251 240 243 242 249 262 250 251 257 266 261 250 241 241 238 243 244
Wind_Speed_850mb
24 30 24 21 20 18 16 14 15 17 18 19 18 18 20 21 21 23 23 22 20 17 13 8 4 2 1 2 3 5 7 9 10 7 7 10 15 15 17 19 14 18 19
25 30 27 24 22 20 18 18 21 20 19 18 17 18 22 24 25 24 25 25 24 21 16 12 7 4 4 4 5 6 8 10 13 5 6 10 16 12 10 10 10 17 18
31 30 29 26 23 20 19 20 19 18 17 16 18 21 20 23 24 26 29 30 29 26 22 18 14 11 9 8 7 9 11 17 10 7 6 10 11 17 9 12 13 17 17
30 31 30 27 23 19 20 20 19 17 15 15 16 17 19 24 26 29 31 31 30 28 26 25 25 21 16 12 11 15 18 18 13 13 13 6 11 15 14 14 17 15 15
32 27 29 25 21 21 18 18 18 16 14 13 15 17 21 25 28 29 30 31 29 27 25 25 19 20 19 22 22 25 25 21 15 8 19 25 22 16 16 16 18 17 16
29 27 27 25 23 24 19 18 18 14 13 13 15 16 21 25 26 28 30 31 29 26 23 20 21 24 25 27 28 30 23 16 14 15 18 15 22 22 18 10 7 9 12
31 27 27 24 24 22 19 18 16 13 12 12 14 17 21 23 25 27 27 28 27 25 24 20 20 21 20 23 26 22 17 13 29 24 13 9 17 18 10 6 7 10 12
28 31 27 25 23 20 18 19 16 13 11 13 16 18 19 21 24 27 28 27 26 23 21 19 19 19 17 17 16 14 6 11 17 24 8 11 15 9 6 9 11 13 15
33 27 25 27 25 21 19 18 15 13 12 13 15 16 17 19 23 25 27 22 21 19 17 18 19 18 18 16 11 8 8 26 18 16 10 15 12 26 31 29 28 22 21
32 28 26 20 25 21 19 18 15 13 11 11 13 13 14 24 26 23 26 20 18 16 13 12 14 20 29 25 17 16 31 19 22 15 17 23 12 14 13 12 14 17 18
30 29 30 21 12 13 16 16 14 12 9 10 11 16 19 22 20 16 31 28 22 19 18 14 16 16 18 24 24 8 6 19 10 9 21 18 14 15 13 12 9 8 13
31 28 31 24 20 26 7 12 14 11 8 5 8 13 13 8 6 14 21 23 25 22 24 19 11 15 18 9 9 11 2 2 13 14 20 12 7 5 8 9 11 8 10
28 27 31 26 26 22 20 6 2 3 0 2 5 2 1 7 11 14 16 14 21 18 15 12 12 14 9 16 6 11 6 9 9 7 5 5 5 12 18 19 13 8 9
29 27 29 28 28 23 20 10 14 7 15 13 11 6 11 3 5 3 13 16 19 9 8 8 13 6 11 16 11 6 7 9 4 9 10 2 6 10 10 13 13 12 13
29 30 24 32 36 29 17 19 17 17 17 6 16 13 6 8 15 9 14 6 4 6 8 9 4 4 14 7 9 9 18 14 4 9 17 6 9 9 9 8 8 10 13
29 32 26 22 35 35 26 16 25 19 11 17 10 19 16 8 17 8 11 5 8 8 10 10 4 13 3 7 5 10 13 8 10 7 11 8 8 10 11 14 16 17 19
31 31 33 27 22 33 32 25 14 13 12 8 15 29 23 16 14 12 4 16 6 14 18 14 9 11 8 8 2 5 14 17 5 4 11 9 6 8 10 13 16 17 20
31 38 31 28 26 22 28 21 18 15 15 17 21 27 19 20 14 11 6 18 9 14 13 15 16 20 15 11 7 7 7 3 8 3 8 12 7 10 10 11 13 15 17
36 37 31 33 32 29 25 23 23 23 26 20 23 22 20 17 12 16 10 20 16 11 19 14 17 13 16 14 19 20 14 10 10 10 12 9 10 8 2 8 6 10 12
35 33 33 35 35 39 27 27 20 22 19 20 20 25 25 16 17 23 15 16 16 9 18 17 21 18 23 19 22 27 18 20 15 21 23 16 21 9 19 14 4 3 6
38 43 38 40 45 43 38 28 23 26 14 16 13 21 22 21 27 29 26 16 11 12 15 19 25 24 18 21 25 17 26 27 24 30 32 23 29 23 28 27 17 17 12
40 42 51 46 46 51 40 29 22 18 11 9 11 16 21 25 23 24 24 13 17 18 22 28 27 24 27 24 27 24 29 36 41 41 40 39 33 35 33 31 29 28 22
39 48 47 50 47 47 37 31 30 23 19 14 15 19 17 17 22 20 19 15 20 26 23 27 28 32 30 24 33 32 19 23 29 49 48 45 41 45 47 41 35 35 34
40 42 45 47 48 43 47 31 25 20 9 10 7 5 11 23 27 30 17 14 23 25 20 24 24 30 34 33 26 37 39 45 20 6 47 47 43 42 53 51 48 47 46
37 40 44 44 46 40 46 35 25 22 15 16 18 19 16 18 16 24 21 24 24 27 24 28 31 33 34 36 38 28 38 31 32 39 39 26 49 46 55 53 54 49 47
37 38 44 44 43 39 44 48 39 27 21 16 15 12 7 24 21 26 28 27 26 26 28 29 40 44 43 45 39 44 42 31 37 38 41 46 42 41 49 51 63 56 50
Wind_Direction_850mb
126 136 135 131 123 114 112 113 108 103 98 87 77 63 54 48 40 35 32 31 34 31 27 33 40 35 46 82 102 117 122 118 101 86 70 64 57 60 80 80 66 62 68
147 137 136 134 124 122 116 111 100 98 92 85 70 54 44 41 39 36 37 37 40 44 45 50 63 88 115 121 112 110 116 103 87 76 66 102 86 68 83 98 35 61 68
139 135 135 132 125 120 120 109 102 96 89 75 56 46 41 43 45 45 47 47 45 48 56 65 72 79 90 105 115 110 101 95 107 70 73 111 85 96 80 98 79 73 74
132 137 133 129 127 123 112 109 103 103 90 71 59 50 46 50 55 56 54 52 49 50 56 63 64 74 78 88 97 98 99 102 83 35 354 325 99 68 78 88 86 86 84
132 135 130 130 123 116 116 116 115 108 94 72 56 51 55 61 60 58 55 55 56 60 67 73 81 84 79 86 101 108 116 114 100 114 41 64 81 84 78 89 92 92 83
135 139 137 137 129 129 128 123 121 113 90 68 58 59 66 65 61 58 53 51 52 58 65 73 78 82 83 90 108 118 112 81 18 29 89 86 64 61 64 73 83 94 106
138 141 139 136 132 133 130 127 122 110 92 78 72 70 68 65 62 58 56 55 56 61 70 70 76 85 89 97 109 118 105 51 29 157 148 8 16 345 356 80 127 135 119
134 143 143 137 137 136 137 138 136 120 100 84 80 80 73 67 59 56 52 50 52 59 70 73 71 71 76 85 95 123 154 28 64 116 92 48 28 340 60 97 125 132 129
139 148 152 148 148 147 147 148 137 124 109 99 90 83 74 64 53 50 53 46 52 54 65 75 72 61 48 36 27 88 108 50 98 118 54 55 77 92 93 94 95 106 115
146 149 153 156 153 156 155 151 144 136 123 107 89 82 82 49 30 40 33 36 45 48 55 65 56 54 58 60 77 104 75 78 74 117 93 90 100 101 101 106 104 110 120
148 154 163 156 152 152 149 156 155 153 134 110 95 77 69 49 1 8 25 22 32 43 46 46 62 63 70 87 66 103 91 74 46 37 91 93 113 106 98 98 109 163 181
156 159 161 155 167 175 205 164 169 166 150 165 125 87 61 76 212 312 1 12 34 40 51 81 70 14 355 339 12 152 90 288 24 88 105 104 84 65 75 74 102 136 133
158 158 156 159 162 165 201 209 22 10 80 65 248 149 318 260 328 322 328 14 5 4 50 60 19 12 357 60 12 350 90 33 124 90 142 136 95 101 107 111 116 116 121
161 166 168 169 178 161 215 151 192 236 203 223 285 229 226 76 294 76 354 356 350 347 52 70 324 229 71 57 77 90 43 82 155 12 26 62 79 92 88 99 104 116 127
164 172 177 185 178 175 184 168 193 208 227 206 219 276 208 237 259 279 251 217 217 352 285 279 304 112 95 77 113 89 84 91 136 28 11 34 76 62 68 84 92 104 112
168 177 181 194 191 180 177 193 204 195 244 210 254 250 266 193 272 225 325 353 273 248 288 256 62 162 65 273 156 124 121 126 17 24 347 22 91 97 101 108 113 116 118
175 185 189 186 228 194 176 194 194 231 211 267 224 241 274 244 268 272 242 268 207 245 238 257 259 191 147 160 146 137 215 196 207 345 353 7 81 105 108 113 119 121 121
182 204 195 182 221 209 187 209 171 221 200 229 235 248 285 288 263 261 257 265 217 255 265 225 251 199 170 188 213 223 182 277 188 177 314 346 16 77 107 116 129 137 137
185 204 210 189 214 232 202 196 176 222 232 215 253 269 251 269 264 271 247 267 216 229 247 237 256 222 204 210 222 203 216 225 297 171 204 284 302 334 134 70 98 127 144
201 196 214 202 196 232 235 196 215 236 259 236 220 257 263 257 254 265 258 282 242 222 257 245 242 222 250 229 234 219 221 222 241 217 246 222 247 266 257 277 277 108 102
202 205 202 208 202 217 225 213 201 235 264 242 270 255 259 260 246 271 284 288 283 249 251 254 242 254 237 223 244 249 221 226 237 226 245 244 221 235 244 259 258 250 240
205 208 205 208 213 217 217 197 201 226 269 229 255 242 249 256 270 268 276 248 266 277 250 250 241 225 247 233 243 241 248 227 234 233 230 236 229 234 236 256 257 258 261
211 209 206 203 213 221 210 202 204 203 209 239 249 284 286 292 298 299 275 252 237 250 256 270 273 254 232 240 236 238 260 239 262 232 230 233 235 231 235 237 243 244 253
212 212 202 205 213 219 188 204 208 192 209 186 158 187 286 291 310 310 289 264 260 261 254 251 265 269 229 236 245 244 254 268 295 312 222 237 235 237 230 236 239 243 243
201 204 200 207 209 213 192 188 217 185 224 217 220 240 266 277 313 330 325 267 272 269 266 241 247 254 243 240 237 256 259 267 266 263 265 246 238 231 233 242 243 250 246
192 196 201 204 201 199 193 189 197 206 192 194 230 227 247 286 288 303 307 314 308 278 270 259 245 246 251 240 243 242 249 262 250 251 257 266 261 250 241 241 238 243 244